Time,TemperatureF,DewpointF,PressureIn,WindDirection,WindDirectionDegrees,WindSpeedMPH,WindSpeedGustMPH,Humidity,HourlyPrecipIn,Conditions,Clouds,dailyrainin,SoftwareType,DateUTC
2013-08-11 00:01:00,73.1,71.9,30.06,SW,226,0.0,1.0,96,0.00,,,0.43,VWS V14.01,2013-08-11 04:01:00,
2013-08-11 00:06:00,73.3,72.4,30.06,SW,226,0.0,1.0,97,0.00,,,0.00,VWS V14.01,2013-08-11 04:06:00,
2013-08-11 00:11:00,73.4,72.5,30.06,SW,226,0.0,1.0,97,0.00,,,0.00,VWS V14.01,2013-08-11 04:11:00,
2013-08-11 00:16:00,73.4,72.2,30.06,SW,226,0.0,1.0,96,0.00,,,0.00,VWS V14.01,2013-08-11 04:16:00,
2013-08-11 00:21:00,73.4,72.5,30.06,WSW,241,0.0,1.0,97,0.00,,,0.00,VWS V14.01,2013-08-11 04:21:00,
2013-08-11 00:26:00,73.4,72.5,30.06,WSW,241,0.0,1.0,97,0.00,,,0.00,VWS V14.01,2013-08-11 04:26:00,
2013-08-11 00:31:00,73.4,72.2,30.06,WSW,241,0.0,1.0,96,0.00,,,0.00,VWS V14.01,2013-08-11 04:31:00,
2013-08-11 00:36:00,73.3,72.1,30.06,WSW,241,0.0,0.0,96,0.00,,,0.00,VWS V14.01,2013-08-11 04:36:00,
2013-08-11 00:41:00,73.2,72.0,30.06,WSW,241,0.0,0.0,96,0.00,,,0.00,VWS V14.01,2013-08-11 04:41:00,
2013-08-11 00:46:00,73.2,72.0,30.06,WSW,241,0.0,0.0,96,0.00,,,0.00,VWS V14.01,2013-08-11 04:46:00,
2013-08-11 00:51:00,73.1,71.9,30.05,SW,227,0.0,1.0,96,0.00,,,0.00,VWS V14.01,2013-08-11 04:51:00,
2013-08-11 00:56:00,73.1,72.2,30.05,WSW,240,0.0,1.0,97,0.00,,,0.00,VWS V14.01,2013-08-11 04:56:00,
2013-08-11 01:01:00,73.1,72.2,30.05,WSW,237,0.0,1.0,97,0.00,,,0.00,VWS V14.01,2013-08-11 05:01:00,
2013-08-11 01:06:00,73.1,72.2,30.05,SSW,213,0.0,1.0,97,0.00,,,0.00,VWS V14.01,2013-08-11 05:06:00,
2013-08-11 01:11:00,73.1,71.9,30.05,SW,218,0.0,1.0,96,0.00,,,0.00,VWS V14.01,2013-08-11 05:11:00,
2013-08-11 01:17:00,73.1,71.9,30.05,WSW,237,0.0,1.0,96,0.00,,,0.00,VWS V14.01,2013-08-11 05:17:00,
2013-08-11 01:22:00,73.0,71.8,30.04,SW,225,0.0,1.0,96,0.00,,,0.00,VWS V14.01,2013-08-11 05:22:00,
2013-08-11 01:27:00,72.9,71.7,30.04,SW,225,0.0,1.0,96,0.00,,,0.00,VWS V14.01,2013-08-11 05:27:00,
2013-08-11 01:32:00,72.9,72.0,30.04,SW,228,0.0,1.0,97,0.00,,,0.00,VWS V14.01,2013-08-11 05:32:00,
2013-08-11 01:37:00,72.9,72.0,30.05,SW,227,0.0,1.0,97,0.00,,,0.00,VWS V14.01,2013-08-11 05:37:00,
2013-08-11 01:43:00,72.9,72.0,30.05,WSW,237,0.0,1.0,97,0.00,,,0.00,VWS V14.01,2013-08-11 05:43:00,
2013-08-11 01:48:00,72.9,72.0,30.05,WNW,302,1.0,2.0,97,0.00,,,0.00,VWS V14.01,2013-08-11 05:48:00,
2013-08-11 01:53:00,72.9,72.0,30.05,WNW,302,0.0,2.0,97,0.00,,,0.00,VWS V14.01,2013-08-11 05:53:00,
2013-08-11 01:59:00,73.0,72.1,30.05,WNW,297,0.0,2.0,97,0.00,,,0.00,VWS V14.01,2013-08-11 05:59:00,
2013-08-11 02:04:00,73.0,72.1,30.05,WNW,298,0.0,2.0,97,0.00,,,0.00,VWS V14.01,2013-08-11 06:04:00,
2013-08-11 02:09:00,73.0,72.1,30.05,WNW,298,1.0,3.0,97,0.00,,,0.00,VWS V14.01,2013-08-11 06:09:00,
2013-08-11 02:14:00,73.0,72.1,30.05,WNW,300,1.0,3.0,97,0.00,,,0.00,VWS V14.01,2013-08-11 06:14:00,
2013-08-11 02:19:00,72.9,72.0,30.05,WNW,300,2.0,3.0,97,0.00,,,0.00,VWS V14.01,2013-08-11 06:19:00,
2013-08-11 02:24:00,72.9,72.0,30.05,NW,304,1.0,3.0,97,0.00,,,0.00,VWS V14.01,2013-08-11 06:24:00,
2013-08-11 02:30:00,72.9,72.0,30.05,NW,304,1.0,3.0,97,0.00,,,0.00,VWS V14.01,2013-08-11 06:30:00,
2013-08-11 02:35:00,72.8,71.9,30.05,NW,304,0.0,0.0,97,0.00,,,0.00,VWS V14.01,2013-08-11 06:35:00,
2013-08-11 02:40:00,72.8,71.9,30.05,NW,308,1.0,1.0,97,0.00,,,0.00,VWS V14.01,2013-08-11 06:40:00,
2013-08-11 02:45:00,72.7,71.8,30.05,WNW,288,0.0,2.0,97,0.00,,,0.00,VWS V14.01,2013-08-11 06:45:00,
2013-08-11 02:51:00,72.7,71.8,30.05,SW,219,0.0,2.0,97,0.00,,,0.00,VWS V14.01,2013-08-11 06:51:00,
2013-08-11 02:56:00,72.6,71.7,30.05,SW,235,0.0,2.0,97,0.00,,,0.00,VWS V14.01,2013-08-11 06:56:00,
2013-08-11 03:01:00,72.6,71.7,30.05,SW,236,0.0,2.0,97,0.00,,,0.00,VWS V14.01,2013-08-11 07:01:00,
2013-08-11 03:06:00,72.4,71.5,30.05,SW,235,0.0,0.0,97,0.00,,,0.00,VWS V14.01,2013-08-11 07:06:00,
2013-08-11 03:11:00,72.4,71.5,30.05,WSW,237,0.0,0.0,97,0.00,,,0.00,VWS V14.01,2013-08-11 07:11:00,
2013-08-11 03:16:00,72.3,71.4,30.05,WSW,237,0.0,1.0,97,0.00,,,0.00,VWS V14.01,2013-08-11 07:16:00,
2013-08-11 03:22:00,72.3,71.4,30.05,WSW,237,0.0,1.0,97,0.00,,,0.00,VWS V14.01,2013-08-11 07:22:00,
2013-08-11 03:27:00,72.2,71.3,30.05,WSW,237,0.0,1.0,97,0.00,,,0.00,VWS V14.01,2013-08-11 07:27:00,
2013-08-11 03:32:00,72.2,71.3,30.05,WSW,237,0.0,1.0,97,0.00,,,0.00,VWS V14.01,2013-08-11 07:32:00,
2013-08-11 03:37:00,72.2,71.3,30.05,WSW,237,0.0,0.0,97,0.00,,,0.00,VWS V14.01,2013-08-11 07:37:00,
2013-08-11 03:42:00,72.1,71.2,30.05,WSW,238,0.0,0.0,97,0.00,,,0.00,VWS V14.01,2013-08-11 07:42:00,
2013-08-11 03:47:00,72.1,71.2,30.05,WSW,237,0.0,0.0,97,0.00,,,0.00,VWS V14.01,2013-08-11 07:47:00,
2013-08-11 03:52:00,72.0,71.1,30.05,WSW,237,0.0,0.0,97,0.00,,,0.00,VWS V14.01,2013-08-11 07:52:00,
2013-08-11 03:57:00,72.0,71.1,30.06,WSW,237,0.0,0.0,97,0.00,,,0.00,VWS V14.01,2013-08-11 07:57:00,
2013-08-11 04:02:00,72.1,71.2,30.06,NNW,338,0.0,1.0,97,0.00,,,0.00,VWS V14.01,2013-08-11 08:02:00,
2013-08-11 04:07:00,72.1,71.2,30.05,NNW,338,0.0,0.0,97,0.00,,,0.00,VWS V14.01,2013-08-11 08:07:00,
2013-08-11 04:13:00,72.0,71.1,30.05,NNW,338,0.0,0.0,97,0.00,,,0.00,VWS V14.01,2013-08-11 08:13:00,
2013-08-11 04:18:00,71.9,71.0,30.05,NNW,338,0.0,0.0,97,0.00,,,0.00,VWS V14.01,2013-08-11 08:18:00,
2013-08-11 04:23:00,71.9,71.0,30.06,NNW,338,0.0,0.0,97,0.00,,,0.00,VWS V14.01,2013-08-11 08:23:00,
2013-08-11 04:29:00,71.9,71.0,30.06,NNW,338,0.0,0.0,97,0.00,,,0.00,VWS V14.01,2013-08-11 08:29:00,
2013-08-11 04:34:00,72.0,71.1,30.06,NNW,327,0.0,0.0,97,0.00,,,0.00,VWS V14.01,2013-08-11 08:34:00,
2013-08-11 04:39:00,72.0,71.1,30.06,WSW,257,0.0,1.0,97,0.00,,,0.00,VWS V14.01,2013-08-11 08:39:00,
2013-08-11 04:44:00,72.1,71.2,30.06,WSW,257,0.0,1.0,97,0.00,,,0.00,VWS V14.01,2013-08-11 08:44:00,
2013-08-11 04:49:00,72.0,71.1,30.06,WSW,257,0.0,1.0,97,0.00,,,0.00,VWS V14.01,2013-08-11 08:49:00,
2013-08-11 04:54:00,72.0,71.1,30.07,WSW,257,0.0,1.0,97,0.00,,,0.00,VWS V14.01,2013-08-11 08:54:00,
2013-08-11 04:59:00,72.0,71.1,30.07,WSW,257,0.0,1.0,97,0.00,,,0.00,VWS V14.01,2013-08-11 08:59:00,
2013-08-11 05:04:00,71.9,71.0,30.07,WSW,257,0.0,1.0,97,0.00,,,0.00,VWS V14.01,2013-08-11 09:04:00,
2013-08-11 05:09:00,71.9,71.0,30.07,WSW,257,0.0,0.0,97,0.00,,,0.00,VWS V14.01,2013-08-11 09:09:00,
2013-08-11 05:15:00,71.9,71.0,30.06,WSW,257,0.0,0.0,97,0.00,,,0.00,VWS V14.01,2013-08-11 09:15:00,
2013-08-11 05:20:00,71.9,71.0,30.06,WSW,257,0.0,0.0,97,0.00,,,0.00,VWS V14.01,2013-08-11 09:20:00,
2013-08-11 05:25:00,71.9,71.0,30.06,WSW,257,0.0,0.0,97,0.00,,,0.00,VWS V14.01,2013-08-11 09:25:00,
2013-08-11 05:31:00,71.9,71.0,30.06,WSW,257,0.0,0.0,97,0.00,,,0.00,VWS V14.01,2013-08-11 09:31:00,
2013-08-11 05:36:00,71.9,71.0,30.06,WSW,257,0.0,0.0,97,0.00,,,0.00,VWS V14.01,2013-08-11 09:36:00,
2013-08-11 05:41:00,71.9,71.0,30.07,WSW,257,0.0,0.0,97,0.00,,,0.00,VWS V14.01,2013-08-11 09:41:00,
2013-08-11 05:47:00,71.8,70.9,30.07,WSW,257,0.0,1.0,97,0.00,,,0.00,VWS V14.01,2013-08-11 09:47:00,
2013-08-11 05:52:00,71.8,70.9,30.07,SW,223,0.0,1.0,97,0.00,,,0.00,VWS V14.01,2013-08-11 09:52:00,
2013-08-11 05:57:00,71.8,70.9,30.07,SW,227,0.0,1.0,97,0.00,,,0.00,VWS V14.01,2013-08-11 09:57:00,
2013-08-11 06:02:00,71.8,70.9,30.07,SW,227,1.0,1.0,97,0.00,,,0.00,VWS V14.01,2013-08-11 10:02:00,
2013-08-11 06:08:00,71.8,70.9,30.08,WSW,237,0.0,0.0,97,0.00,,,0.00,VWS V14.01,2013-08-11 10:08:00,
2013-08-11 06:13:00,71.7,70.8,30.07,WSW,237,0.0,1.0,97,0.00,,,0.00,VWS V14.01,2013-08-11 10:13:00,
2013-08-11 06:18:00,71.7,70.8,30.07,SW,233,0.0,1.0,97,0.00,,,0.00,VWS V14.01,2013-08-11 10:18:00,
2013-08-11 06:23:00,71.6,70.7,30.07,SW,233,0.0,1.0,97,0.00,,,0.00,VWS V14.01,2013-08-11 10:23:00,
2013-08-11 06:28:00,71.6,70.7,30.08,SW,233,0.0,1.0,97,0.00,,,0.00,VWS V14.01,2013-08-11 10:28:00,
2013-08-11 06:33:00,71.6,70.7,30.08,SW,233,0.0,1.0,97,0.00,,,0.00,VWS V14.01,2013-08-11 10:33:00,
2013-08-11 06:38:00,71.6,70.7,30.08,SW,232,0.0,0.0,97,0.00,,,0.00,VWS V14.01,2013-08-11 10:38:00,
2013-08-11 06:44:00,71.7,70.8,30.08,SW,218,0.0,1.0,97,0.01,,,0.01,VWS V14.01,2013-08-11 10:44:00,
2013-08-11 06:49:00,71.7,70.8,30.08,SW,219,0.0,1.0,97,0.01,,,0.01,VWS V14.01,2013-08-11 10:49:00,
2013-08-11 06:54:00,71.7,70.8,30.08,SW,222,0.0,1.0,97,0.01,,,0.01,VWS V14.01,2013-08-11 10:54:00,
2013-08-11 06:59:00,71.7,70.8,30.08,SW,222,0.0,1.0,97,0.01,,,0.01,VWS V14.01,2013-08-11 10:59:00,
2013-08-11 07:04:00,71.8,70.9,30.08,SW,222,0.0,1.0,97,0.01,,,0.01,VWS V14.01,2013-08-11 11:04:00,
2013-08-11 07:09:00,71.9,71.3,30.08,SW,222,0.0,0.0,98,0.01,,,0.01,VWS V14.01,2013-08-11 11:09:00,
2013-08-11 07:14:00,71.9,71.3,30.08,SW,222,0.0,0.0,98,0.01,,,0.01,VWS V14.01,2013-08-11 11:14:00,
2013-08-11 07:20:00,72.2,71.6,30.08,SW,226,0.0,0.0,98,0.01,,,0.01,VWS V14.01,2013-08-11 11:20:00,
2013-08-11 07:25:00,72.4,71.5,30.08,SW,227,0.0,0.0,97,0.01,,,0.01,VWS V14.01,2013-08-11 11:25:00,
2013-08-11 07:31:00,72.6,71.7,30.08,SW,234,0.0,0.0,97,0.01,,,0.01,VWS V14.01,2013-08-11 11:31:00,
2013-08-11 07:36:00,72.9,72.0,30.08,SW,236,0.0,0.0,97,0.01,,,0.01,VWS V14.01,2013-08-11 11:36:00,
2013-08-11 07:41:00,73.2,72.3,30.08,SW,236,0.0,1.0,97,0.01,,,0.01,VWS V14.01,2013-08-11 11:41:00,
2013-08-11 07:46:00,73.4,72.5,30.08,SSW,195,0.0,2.0,97,0.01,,,0.01,VWS V14.01,2013-08-11 11:46:00,
2013-08-11 07:51:00,73.4,72.5,30.08,SSW,205,0.0,2.0,97,0.01,,,0.01,VWS V14.01,2013-08-11 11:51:00,
2013-08-11 07:57:00,73.7,72.8,30.08,SW,232,0.0,2.0,97,0.01,,,0.01,VWS V14.01,2013-08-11 11:57:00,
2013-08-11 08:02:00,73.8,72.9,30.08,SW,225,0.0,2.0,97,0.01,,,0.01,VWS V14.01,2013-08-11 12:02:00,
2013-08-11 08:07:00,74.2,73.0,30.08,SSW,213,1.0,2.0,96,0.00,,,0.01,VWS V14.01,2013-08-11 12:07:00,
2013-08-11 08:12:00,74.3,73.1,30.08,SW,215,2.0,2.0,96,0.00,,,0.01,VWS V14.01,2013-08-11 12:12:00,
2013-08-11 08:18:00,74.3,73.1,30.08,WSW,242,1.0,2.0,96,0.00,,,0.01,VWS V14.01,2013-08-11 12:18:00,
2013-08-11 08:23:00,74.5,73.3,30.08,WSW,244,1.0,2.0,96,0.00,,,0.01,VWS V14.01,2013-08-11 12:23:00,
2013-08-11 08:28:00,74.8,73.3,30.08,SSW,206,0.0,2.0,95,0.00,,,0.01,VWS V14.01,2013-08-11 12:28:00,
2013-08-11 08:33:00,75.1,73.6,30.08,SW,229,2.0,3.0,95,0.00,,,0.01,VWS V14.01,2013-08-11 12:33:00,
2013-08-11 08:38:00,75.0,73.2,30.08,SW,230,1.0,2.0,94,0.00,,,0.01,VWS V14.01,2013-08-11 12:38:00,
2013-08-11 08:43:00,75.1,73.3,30.08,WSW,238,1.0,2.0,94,0.00,,,0.01,VWS V14.01,2013-08-11 12:43:00,
2013-08-11 08:48:00,75.8,73.9,30.09,WSW,247,0.0,2.0,94,0.00,,,0.01,VWS V14.01,2013-08-11 12:48:00,
2013-08-11 08:53:00,76.5,74.3,30.09,SW,229,1.0,2.0,93,0.00,,,0.01,VWS V14.01,2013-08-11 12:53:00,
2013-08-11 08:58:00,77.1,74.6,30.09,WSW,241,0.0,2.0,92,0.00,,,0.01,VWS V14.01,2013-08-11 12:58:00,
2013-08-11 09:04:00,77.7,74.9,30.09,WSW,257,1.0,2.0,91,0.00,,,0.01,VWS V14.01,2013-08-11 13:04:00,
2013-08-11 09:09:00,78.3,75.1,30.09,SW,214,0.0,1.0,90,0.00,,,0.01,VWS V14.01,2013-08-11 13:09:00,
2013-08-11 09:14:00,78.8,75.3,30.09,West,263,0.0,3.0,89,0.00,,,0.01,VWS V14.01,2013-08-11 13:14:00,
2013-08-11 09:20:00,78.9,75.1,30.09,SW,219,1.0,3.0,88,0.00,,,0.01,VWS V14.01,2013-08-11 13:20:00,
2013-08-11 09:25:00,79.1,75.2,30.09,WSW,241,0.0,3.0,88,0.00,,,0.01,VWS V14.01,2013-08-11 13:25:00,
2013-08-11 09:30:00,79.3,75.1,30.09,SW,232,0.0,3.0,87,0.00,,,0.01,VWS V14.01,2013-08-11 13:30:00,
2013-08-11 09:36:00,79.4,75.2,30.08,WSW,241,0.0,1.0,87,0.00,,,0.01,VWS V14.01,2013-08-11 13:36:00,
2013-08-11 09:41:00,79.6,75.1,30.08,West,261,1.0,2.0,86,0.00,,,0.01,VWS V14.01,2013-08-11 13:41:00,
2013-08-11 09:46:00,79.9,75.7,30.08,SSW,205,1.0,2.0,87,0.00,,,0.01,VWS V14.01,2013-08-11 13:46:00,
2013-08-11 09:51:00,80.3,75.4,30.08,SW,223,0.0,2.0,85,0.00,,,0.01,VWS V14.01,2013-08-11 13:51:00,
2013-08-11 09:56:00,80.7,75.8,30.08,WSW,245,2.0,2.0,85,0.00,,,0.01,VWS V14.01,2013-08-11 13:56:00,
2013-08-11 10:01:00,80.7,75.1,30.08,WSW,238,0.0,2.0,83,0.00,,,0.01,VWS V14.01,2013-08-11 14:01:00,
2013-08-11 10:07:00,80.9,76.0,30.08,WSW,239,1.0,1.0,85,0.00,,,0.01,VWS V14.01,2013-08-11 14:07:00,
2013-08-11 10:12:00,81.4,76.1,30.08,SW,221,2.0,2.0,84,0.00,,,0.01,VWS V14.01,2013-08-11 14:12:00,
2013-08-11 10:17:00,81.6,75.9,30.08,WSW,257,1.0,4.0,83,0.00,,,0.01,VWS V14.01,2013-08-11 14:17:00,
2013-08-11 10:23:00,82.3,76.3,30.08,WSW,253,0.0,4.0,82,0.00,,,0.01,VWS V14.01,2013-08-11 14:23:00,
2013-08-11 10:28:00,82.8,75.6,30.08,WSW,237,1.0,4.0,79,0.00,,,0.01,VWS V14.01,2013-08-11 14:28:00,
2013-08-11 10:33:00,82.9,75.3,30.08,WSW,250,0.0,4.0,78,0.00,,,0.01,VWS V14.01,2013-08-11 14:33:00,
2013-08-11 10:38:00,83.1,75.5,30.08,SW,230,1.0,2.0,78,0.00,,,0.01,VWS V14.01,2013-08-11 14:38:00,
2013-08-11 10:43:00,83.1,75.9,30.08,WSW,244,0.0,2.0,79,0.00,,,0.01,VWS V14.01,2013-08-11 14:43:00,
2013-08-11 10:48:00,84.0,76.0,30.09,WSW,254,1.0,3.0,77,0.00,,,0.01,VWS V14.01,2013-08-11 14:48:00,
2013-08-11 10:53:00,84.2,75.8,30.09,WSW,240,1.0,3.0,76,0.00,,,0.01,VWS V14.01,2013-08-11 14:53:00,
2013-08-11 10:58:00,84.6,76.6,30.09,WSW,241,1.0,3.0,77,0.00,,,0.01,VWS V14.01,2013-08-11 14:58:00,
2013-08-11 11:04:00,85.0,76.2,30.08,SSW,210,1.0,2.0,75,0.00,,,0.01,VWS V14.01,2013-08-11 15:04:00,
2013-08-11 11:10:00,84.8,75.6,30.08,SW,234,1.0,3.0,74,0.00,,,0.01,VWS V14.01,2013-08-11 15:10:00,
2013-08-11 11:15:00,84.9,76.5,30.08,WSW,251,2.0,4.0,76,0.00,,,0.01,VWS V14.01,2013-08-11 15:15:00,
2013-08-11 11:20:00,85.4,76.2,30.08,WSW,242,0.0,4.0,74,0.00,,,0.01,VWS V14.01,2013-08-11 15:20:00,
2013-08-11 11:26:00,85.6,76.0,30.08,West,272,1.0,4.0,73,0.00,,,0.01,VWS V14.01,2013-08-11 15:26:00,
2013-08-11 11:31:00,85.9,76.7,30.08,WSW,244,4.0,4.0,74,0.00,,,0.01,VWS V14.01,2013-08-11 15:31:00,
2013-08-11 11:36:00,86.1,76.4,30.08,SW,236,2.0,3.0,73,0.00,,,0.01,VWS V14.01,2013-08-11 15:36:00,
2013-08-11 11:41:00,86.1,76.8,30.08,NW,316,4.0,4.0,74,0.00,,,0.01,VWS V14.01,2013-08-11 15:41:00,
2013-08-11 11:46:00,85.9,75.8,30.07,WSW,253,2.0,5.0,72,0.00,,,0.01,VWS V14.01,2013-08-11 15:46:00,
2013-08-11 11:52:00,86.1,76.4,30.07,WSW,256,1.0,5.0,73,0.00,,,0.01,VWS V14.01,2013-08-11 15:52:00,
2013-08-11 11:57:00,86.5,76.8,30.07,West,261,0.0,5.0,73,0.00,,,0.01,VWS V14.01,2013-08-11 15:57:00,
2013-08-11 12:02:00,86.8,76.7,30.07,WSW,247,2.0,5.0,72,0.00,,,0.01,VWS V14.01,2013-08-11 16:02:00,
2013-08-11 12:07:00,87.3,77.2,30.07,WSW,238,1.0,2.0,72,0.00,,,0.01,VWS V14.01,2013-08-11 16:07:00,
2013-08-11 12:12:00,87.7,76.7,30.07,SW,225,0.0,3.0,70,0.00,,,0.01,VWS V14.01,2013-08-11 16:12:00,
2013-08-11 12:17:00,87.9,76.5,30.07,WSW,244,0.0,6.0,69,0.00,,,0.01,VWS V14.01,2013-08-11 16:17:00,
2013-08-11 12:22:00,88.5,77.9,30.07,WSW,254,0.0,6.0,71,0.00,,,0.01,VWS V14.01,2013-08-11 16:22:00,
2013-08-11 12:27:00,88.6,77.1,30.07,West,272,3.0,6.0,69,0.00,,,0.01,VWS V14.01,2013-08-11 16:27:00,
2013-08-11 12:32:00,88.4,77.8,30.06,NE,52,1.0,6.0,71,0.00,,,0.01,VWS V14.01,2013-08-11 16:32:00,
2013-08-11 12:37:00,89.0,77.1,30.06,WSW,253,1.0,4.0,68,0.00,,,0.01,VWS V14.01,2013-08-11 16:37:00,
2013-08-11 12:42:00,89.2,77.7,30.06,WNW,298,0.0,4.0,69,0.00,,,0.01,VWS V14.01,2013-08-11 16:42:00,
2013-08-11 12:48:00,88.9,77.4,30.06,West,277,0.0,5.0,69,0.00,,,0.01,VWS V14.01,2013-08-11 16:48:00,
2013-08-11 12:53:00,88.8,76.9,30.06,WNW,286,2.0,5.0,68,0.00,,,0.01,VWS V14.01,2013-08-11 16:53:00,
2013-08-11 12:58:00,88.8,77.3,30.06,WSW,248,2.0,5.0,69,0.00,,,0.01,VWS V14.01,2013-08-11 16:58:00,
2013-08-11 13:04:00,89.1,77.2,30.06,SW,217,2.0,5.0,68,0.00,,,0.01,VWS V14.01,2013-08-11 17:04:00,
2013-08-11 13:09:00,89.0,76.6,30.06,SSW,211,2.0,3.0,67,0.00,,,0.01,VWS V14.01,2013-08-11 17:09:00,
2013-08-11 13:14:00,89.3,77.8,30.06,SW,217,1.0,3.0,69,0.00,,,0.01,VWS V14.01,2013-08-11 17:14:00,
2013-08-11 13:19:00,89.4,77.4,30.06,South,182,3.0,3.0,68,0.00,,,0.01,VWS V14.01,2013-08-11 17:19:00,
2013-08-11 13:25:00,89.4,77.0,30.05,WSW,244,1.0,4.0,67,0.00,,,0.01,VWS V14.01,2013-08-11 17:25:00,
2013-08-11 13:30:00,89.6,77.6,30.05,SSE,155,0.0,4.0,68,0.00,,,0.01,VWS V14.01,2013-08-11 17:30:00,
2013-08-11 13:36:00,90.2,77.3,30.05,SSW,211,2.0,3.0,66,0.00,,,0.01,VWS V14.01,2013-08-11 17:36:00,
2013-08-11 13:41:00,90.2,77.3,30.05,WNW,284,1.0,4.0,66,0.00,,,0.01,VWS V14.01,2013-08-11 17:41:00,
2013-08-11 13:46:00,90.1,76.8,30.05,SW,223,3.0,5.0,65,0.00,,,0.01,VWS V14.01,2013-08-11 17:46:00,
2013-08-11 13:52:00,90.0,77.1,30.04,WNW,284,3.0,5.0,66,0.00,,,0.01,VWS V14.01,2013-08-11 17:52:00,
2013-08-11 13:57:00,89.9,77.0,30.04,SW,223,0.0,5.0,66,0.00,,,0.01,VWS V14.01,2013-08-11 17:57:00,
2013-08-11 14:02:00,90.6,77.7,30.04,SW,236,2.0,5.0,66,0.00,,,0.01,VWS V14.01,2013-08-11 18:02:00,
2013-08-11 14:07:00,90.3,77.4,30.04,SSW,202,0.0,3.0,66,0.00,,,0.01,VWS V14.01,2013-08-11 18:07:00,
2013-08-11 14:13:00,91.4,78.4,30.03,West,260,0.0,3.0,66,0.00,,,0.01,VWS V14.01,2013-08-11 18:13:00,
2013-08-11 14:18:00,91.0,77.1,30.03,South,173,2.0,3.0,64,0.00,,,0.01,VWS V14.01,2013-08-11 18:18:00,
2013-08-11 14:23:00,91.6,77.7,30.03,WSW,252,0.0,3.0,64,0.00,,,0.01,VWS V14.01,2013-08-11 18:23:00,
2013-08-11 14:28:00,91.2,76.4,30.03,WSW,242,1.0,3.0,62,0.00,,,0.01,VWS V14.01,2013-08-11 18:28:00,
2013-08-11 14:34:00,90.8,76.9,30.02,WSW,247,0.0,3.0,64,0.00,,,0.01,VWS V14.01,2013-08-11 18:34:00,
2013-08-11 14:39:00,90.2,76.8,30.02,West,265,1.0,2.0,65,0.00,,,0.01,VWS V14.01,2013-08-11 18:39:00,
2013-08-11 14:44:00,90.3,76.9,30.02,SSE,159,0.0,2.0,65,0.00,,,0.01,VWS V14.01,2013-08-11 18:44:00,
2013-08-11 14:49:00,90.9,76.6,30.02,West,261,0.0,4.0,63,0.00,,,0.01,VWS V14.01,2013-08-11 18:49:00,
2013-08-11 14:54:00,90.5,76.2,30.02,SW,222,0.0,4.0,63,0.00,,,0.01,VWS V14.01,2013-08-11 18:54:00,
2013-08-11 15:00:00,89.7,75.9,30.02,SW,236,0.0,4.0,64,0.00,,,0.01,VWS V14.01,2013-08-11 19:00:00,
2013-08-11 15:05:00,89.7,75.9,30.02,West,260,1.0,2.0,64,0.00,,,0.01,VWS V14.01,2013-08-11 19:05:00,
2013-08-11 15:10:00,90.0,75.7,30.01,West,271,1.0,3.0,63,0.00,,,0.01,VWS V14.01,2013-08-11 19:10:00,
2013-08-11 15:15:00,89.9,76.6,30.01,SSE,155,0.0,3.0,65,0.00,,,0.01,VWS V14.01,2013-08-11 19:15:00,
2013-08-11 15:20:00,90.0,76.2,30.01,WSW,242,2.0,3.0,64,0.00,,,0.01,VWS V14.01,2013-08-11 19:20:00,
2013-08-11 15:26:00,89.6,75.8,30.01,WSW,238,0.0,4.0,64,0.00,,,0.01,VWS V14.01,2013-08-11 19:26:00,
2013-08-11 15:31:00,89.4,77.0,30.01,WNW,294,1.0,4.0,67,0.00,,,0.01,VWS V14.01,2013-08-11 19:31:00,
2013-08-11 15:37:00,89.5,75.7,30.01,NW,306,0.0,2.0,64,0.00,,,0.01,VWS V14.01,2013-08-11 19:37:00,
2013-08-11 15:42:00,89.6,75.8,30.01,SSE,157,0.0,3.0,64,0.00,,,0.01,VWS V14.01,2013-08-11 19:42:00,
2013-08-11 15:47:00,90.3,76.9,30.01,WSW,250,2.0,3.0,65,0.00,,,0.01,VWS V14.01,2013-08-11 19:47:00,
2013-08-11 15:52:00,90.0,75.7,30.01,WSW,248,3.0,3.0,63,0.00,,,0.01,VWS V14.01,2013-08-11 19:52:00,
2013-08-11 15:58:00,90.0,76.2,30.00,NW,305,3.0,3.0,64,0.00,,,0.01,VWS V14.01,2013-08-11 19:58:00,
2013-08-11 16:03:00,90.4,76.6,30.00,SSW,210,0.0,3.0,64,0.00,,,0.01,VWS V14.01,2013-08-11 20:03:00,
2013-08-11 16:08:00,90.6,76.8,30.00,West,270,1.0,2.0,64,0.00,,,0.01,VWS V14.01,2013-08-11 20:08:00,
2013-08-11 16:13:00,90.8,76.5,30.00,North,355,0.0,4.0,63,0.00,,,0.01,VWS V14.01,2013-08-11 20:13:00,
2013-08-11 16:19:00,90.8,76.0,30.00,WSW,246,2.0,4.0,62,0.00,,,0.01,VWS V14.01,2013-08-11 20:19:00,
2013-08-11 16:24:00,90.8,76.0,30.00,West,280,0.0,4.0,62,0.00,,,0.01,VWS V14.01,2013-08-11 20:24:00,
2013-08-11 16:29:00,91.0,75.7,30.00,SSE,161,0.0,4.0,61,0.00,,,0.01,VWS V14.01,2013-08-11 20:29:00,
2013-08-11 16:34:00,91.1,76.3,30.00,SW,232,1.0,4.0,62,0.00,,,0.01,VWS V14.01,2013-08-11 20:34:00,
2013-08-11 16:39:00,91.0,75.7,30.00,SSW,207,2.0,3.0,61,0.00,,,0.01,VWS V14.01,2013-08-11 20:39:00,
2013-08-11 16:44:00,90.6,74.8,30.00,SW,226,2.0,4.0,60,0.00,,,0.01,VWS V14.01,2013-08-11 20:44:00,
2013-08-11 16:49:00,90.7,75.4,30.00,SW,235,1.0,4.0,61,0.00,,,0.01,VWS V14.01,2013-08-11 20:49:00,
2013-08-11 16:54:00,91.1,74.8,30.00,WSW,242,1.0,4.0,59,0.00,,,0.01,VWS V14.01,2013-08-11 20:54:00,
2013-08-11 17:00:00,91.0,75.7,30.00,WSW,246,1.0,4.0,61,0.00,,,0.01,VWS V14.01,2013-08-11 21:00:00,
2013-08-11 17:05:00,91.2,75.4,30.00,WNW,297,2.0,4.0,60,0.00,,,0.01,VWS V14.01,2013-08-11 21:05:00,
2013-08-11 17:10:00,91.0,75.7,29.99,ENE,69,1.0,4.0,61,0.00,,,0.01,VWS V14.01,2013-08-11 21:10:00,
2013-08-11 17:15:00,90.8,75.5,29.99,West,259,0.0,4.0,61,0.00,,,0.01,VWS V14.01,2013-08-11 21:15:00,
2013-08-11 17:20:00,90.8,76.0,29.99,WSW,253,1.0,4.0,62,0.00,,,0.01,VWS V14.01,2013-08-11 21:20:00,
2013-08-11 17:25:00,90.6,75.3,29.99,West,278,0.0,4.0,61,0.00,,,0.01,VWS V14.01,2013-08-11 21:25:00,
2013-08-11 17:30:00,90.7,75.9,29.99,WSW,242,1.0,4.0,62,0.00,,,0.01,VWS V14.01,2013-08-11 21:30:00,
2013-08-11 17:35:00,90.6,75.8,29.99,WSW,242,0.0,3.0,62,0.00,,,0.01,VWS V14.01,2013-08-11 21:35:00,
2013-08-11 17:41:00,90.5,75.7,29.99,SW,226,0.0,3.0,62,0.00,,,0.01,VWS V14.01,2013-08-11 21:41:00,
2013-08-11 17:46:00,90.6,76.3,29.99,NW,310,1.0,3.0,63,0.00,,,0.01,VWS V14.01,2013-08-11 21:46:00,
2013-08-11 17:51:00,90.5,76.2,29.99,WSW,248,1.0,3.0,63,0.00,,,0.01,VWS V14.01,2013-08-11 21:51:00,
2013-08-11 17:56:00,90.3,76.0,29.99,WSW,254,0.0,3.0,63,0.00,,,0.01,VWS V14.01,2013-08-11 21:56:00,
2013-08-11 18:01:00,90.5,76.2,29.98,West,267,1.0,3.0,63,0.00,,,0.01,VWS V14.01,2013-08-11 22:01:00,
2013-08-11 18:06:00,90.6,76.8,29.99,SW,236,1.0,2.0,64,0.00,,,0.01,VWS V14.01,2013-08-11 22:06:00,
2013-08-11 18:12:00,90.3,76.9,29.99,WSW,237,0.0,2.0,65,0.00,,,0.01,VWS V14.01,2013-08-11 22:12:00,
2013-08-11 18:17:00,90.5,77.1,29.99,WSW,253,1.0,2.0,65,0.00,,,0.01,VWS V14.01,2013-08-11 22:17:00,
2013-08-11 18:22:00,90.8,77.4,29.98,WSW,251,1.0,2.0,65,0.00,,,0.01,VWS V14.01,2013-08-11 22:22:00,
2013-08-11 18:27:00,90.7,76.8,29.98,SW,227,1.0,2.0,64,0.00,,,0.01,VWS V14.01,2013-08-11 22:27:00,
2013-08-11 18:33:00,90.4,77.0,29.98,WSW,248,1.0,3.0,65,0.00,,,0.01,VWS V14.01,2013-08-11 22:33:00,
2013-08-11 18:38:00,90.1,76.8,29.99,WSW,239,1.0,2.0,65,0.00,,,0.01,VWS V14.01,2013-08-11 22:38:00,
2013-08-11 18:43:00,89.8,76.9,29.99,NW,311,1.0,2.0,66,0.00,,,0.01,VWS V14.01,2013-08-11 22:43:00,
2013-08-11 18:49:00,89.5,77.1,29.98,West,279,0.0,2.0,67,0.00,,,0.01,VWS V14.01,2013-08-11 22:49:00,
2013-08-11 18:54:00,89.4,77.0,29.98,NW,317,0.0,2.0,67,0.00,,,0.01,VWS V14.01,2013-08-11 22:54:00,
2013-08-11 18:59:00,89.2,76.8,29.98,WSW,241,0.0,2.0,67,0.00,,,0.01,VWS V14.01,2013-08-11 22:59:00,
2013-08-11 19:04:00,88.8,76.9,29.98,WSW,240,0.0,2.0,68,0.00,,,0.01,VWS V14.01,2013-08-11 23:04:00,
2013-08-11 19:09:00,88.7,77.2,29.99,SW,230,0.0,1.0,69,0.00,,,0.01,VWS V14.01,2013-08-11 23:09:00,
2013-08-11 19:14:00,88.5,77.0,29.99,West,273,0.0,1.0,69,0.00,,,0.01,VWS V14.01,2013-08-11 23:14:00,
2013-08-11 19:20:00,88.5,77.5,29.99,WSW,242,0.0,1.0,70,0.00,,,0.01,VWS V14.01,2013-08-11 23:20:00,
2013-08-11 19:26:00,88.1,77.5,29.99,WSW,242,0.0,1.0,71,0.00,,,0.01,VWS V14.01,2013-08-11 23:26:00,
2013-08-11 19:31:00,87.8,77.2,29.99,WSW,242,0.0,1.0,71,0.00,,,0.01,VWS V14.01,2013-08-11 23:31:00,
2013-08-11 19:36:00,87.5,77.4,29.99,WSW,238,0.0,0.0,72,0.00,,,0.01,VWS V14.01,2013-08-11 23:36:00,
2013-08-11 19:41:00,87.1,77.4,29.99,WSW,238,0.0,0.0,73,0.00,,,0.01,VWS V14.01,2013-08-11 23:41:00,
2013-08-11 19:46:00,86.7,77.4,30.00,WSW,238,0.0,0.0,74,0.00,,,0.01,VWS V14.01,2013-08-11 23:46:00,
2013-08-11 19:52:00,86.3,77.0,29.99,WSW,238,0.0,0.0,74,0.00,,,0.01,VWS V14.01,2013-08-11 23:52:00,
2013-08-11 19:57:00,86.0,77.2,30.00,WSW,238,0.0,0.0,75,0.00,,,0.01,VWS V14.01,2013-08-11 23:57:00,
2013-08-11 20:02:00,85.7,77.3,29.99,WSW,238,0.0,1.0,76,0.00,,,0.01,VWS V14.01,2013-08-12 00:02:00,
2013-08-11 20:07:00,85.4,77.4,30.00,WSW,238,0.0,0.0,77,0.00,,,0.01,VWS V14.01,2013-08-12 00:07:00,
2013-08-11 20:13:00,85.0,77.0,30.00,WSW,238,0.0,0.0,77,0.00,,,0.01,VWS V14.01,2013-08-12 00:13:00,
2013-08-11 20:18:00,84.8,76.8,30.00,SW,233,0.0,0.0,77,0.00,,,0.01,VWS V14.01,2013-08-12 00:18:00,
2013-08-11 20:23:00,84.6,77.0,30.00,SW,233,0.0,0.0,78,0.00,,,0.01,VWS V14.01,2013-08-12 00:23:00,
2013-08-11 20:28:00,84.4,76.8,30.00,SW,233,0.0,0.0,78,0.00,,,0.01,VWS V14.01,2013-08-12 00:28:00,
2013-08-11 20:34:00,84.3,77.1,30.00,SW,233,0.0,0.0,79,0.00,,,0.01,VWS V14.01,2013-08-12 00:34:00,
2013-08-11 20:39:00,84.1,76.9,30.00,SW,233,0.0,0.0,79,0.00,,,0.01,VWS V14.01,2013-08-12 00:39:00,
2013-08-11 20:44:00,83.9,76.7,30.00,SW,233,0.0,0.0,79,0.00,,,0.01,VWS V14.01,2013-08-12 00:44:00,
2013-08-11 20:49:00,83.8,76.6,30.00,SW,233,0.0,0.0,79,0.00,,,0.01,VWS V14.01,2013-08-12 00:49:00,
2013-08-11 20:54:00,83.6,76.4,30.00,SW,236,0.0,1.0,79,0.00,,,0.01,VWS V14.01,2013-08-12 00:54:00,
2013-08-11 20:59:00,83.5,76.7,30.00,SW,236,0.0,1.0,80,0.00,,,0.01,VWS V14.01,2013-08-12 00:59:00,
2013-08-11 21:04:00,83.5,77.1,29.99,NNW,331,0.0,1.0,81,0.00,,,0.01,VWS V14.01,2013-08-12 01:04:00,
2013-08-11 21:09:00,83.5,77.1,30.00,North,351,0.0,1.0,81,0.00,,,0.01,VWS V14.01,2013-08-12 01:09:00,
2013-08-11 21:14:00,83.3,76.9,30.00,North,355,0.0,1.0,81,0.00,,,0.01,VWS V14.01,2013-08-12 01:14:00,
2013-08-11 21:19:00,83.1,77.0,30.00,North,360,0.0,1.0,82,0.00,,,0.01,VWS V14.01,2013-08-12 01:19:00,
2013-08-11 21:25:00,82.9,77.2,30.00,North,355,0.0,1.0,83,0.00,,,0.01,VWS V14.01,2013-08-12 01:25:00,
2013-08-11 21:30:00,83.1,77.4,30.00,North,355,0.0,1.0,83,0.00,,,0.01,VWS V14.01,2013-08-12 01:30:00,
2013-08-11 21:36:00,82.8,77.1,30.00,North,360,0.0,0.0,83,0.00,,,0.01,VWS V14.01,2013-08-12 01:36:00,
2013-08-11 21:41:00,82.5,76.8,30.00,North,360,0.0,0.0,83,0.00,,,0.01,VWS V14.01,2013-08-12 01:41:00,
2013-08-11 21:46:00,82.2,76.9,30.01,North,360,0.0,0.0,84,0.00,,,0.01,VWS V14.01,2013-08-12 01:46:00,
2013-08-11 21:51:00,81.9,76.9,30.01,North,360,0.0,0.0,85,0.00,,,0.01,VWS V14.01,2013-08-12 01:51:00,
2013-08-11 21:57:00,81.4,76.8,30.01,North,360,0.0,0.0,86,0.00,,,0.01,VWS V14.01,2013-08-12 01:57:00,
2013-08-11 22:02:00,81.1,76.5,30.00,NNE,24,0.0,0.0,86,0.00,,,0.01,VWS V14.01,2013-08-12 02:02:00,
2013-08-11 22:08:00,81.0,76.8,30.01,NNE,24,0.0,1.0,87,0.00,,,0.01,VWS V14.01,2013-08-12 02:08:00,
2013-08-11 22:13:00,81.1,76.9,30.01,NNE,24,0.0,1.0,87,0.00,,,0.01,VWS V14.01,2013-08-12 02:13:00,
2013-08-11 22:18:00,81.0,76.8,30.01,NNE,24,0.0,1.0,87,0.00,,,0.01,VWS V14.01,2013-08-12 02:18:00,
2013-08-11 22:24:00,80.8,76.6,30.01,NNE,24,0.0,1.0,87,0.00,,,0.01,VWS V14.01,2013-08-12 02:24:00,
2013-08-11 22:29:00,80.5,76.6,30.01,NNE,24,0.0,1.0,88,0.00,,,0.01,VWS V14.01,2013-08-12 02:29:00,
2013-08-11 22:34:00,80.3,76.4,30.01,SE,145,0.0,1.0,88,0.00,,,0.01,VWS V14.01,2013-08-12 02:34:00,
2013-08-11 22:39:00,80.2,76.3,30.01,SE,145,0.0,0.0,88,0.00,,,0.01,VWS V14.01,2013-08-12 02:39:00,
2013-08-11 22:46:00,80.1,76.6,30.02,SE,145,0.0,0.0,89,0.00,,,0.01,VWS V14.01,2013-08-12 02:46:00,
2013-08-11 22:51:00,80.1,76.6,30.02,SE,146,0.0,0.0,89,0.00,,,0.01,VWS V14.01,2013-08-12 02:51:00,
2013-08-11 22:56:00,80.1,76.6,30.02,SE,145,0.0,0.0,89,0.00,,,0.01,VWS V14.01,2013-08-12 02:56:00,
2013-08-11 23:01:00,80.0,76.5,30.02,SE,145,0.0,0.0,89,0.00,,,0.01,VWS V14.01,2013-08-12 03:01:00,
2013-08-11 23:06:00,79.9,76.7,30.02,SE,145,0.0,0.0,90,0.00,,,0.01,VWS V14.01,2013-08-12 03:06:00,
2013-08-11 23:11:00,79.9,76.7,30.01,SE,144,0.0,1.0,90,0.00,,,0.01,VWS V14.01,2013-08-12 03:11:00,
2013-08-11 23:16:00,79.8,76.6,30.01,SE,139,0.0,1.0,90,0.00,,,0.01,VWS V14.01,2013-08-12 03:16:00,
2013-08-11 23:21:00,79.7,76.5,30.02,SE,139,0.0,1.0,90,0.00,,,0.01,VWS V14.01,2013-08-12 03:21:00,
2013-08-11 23:27:00,79.6,76.4,30.01,SE,146,0.0,1.0,90,0.00,,,0.01,VWS V14.01,2013-08-12 03:27:00,
2013-08-11 23:32:00,79.6,76.4,30.01,South,173,0.0,1.0,90,0.00,,,0.01,VWS V14.01,2013-08-12 03:32:00,
2013-08-11 23:37:00,79.6,76.4,30.01,SSE,167,0.0,0.0,90,0.00,,,0.01,VWS V14.01,2013-08-12 03:37:00,
2013-08-11 23:44:00,79.5,76.3,30.02,SSE,168,0.0,0.0,90,0.00,,,0.01,VWS V14.01,2013-08-12 03:44:00,
2013-08-11 23:49:00,79.4,76.2,30.02,SSE,167,0.0,0.0,90,0.00,,,0.01,VWS V14.01,2013-08-12 03:49:00,
2013-08-11 23:54:00,79.3,76.4,30.01,SSE,167,0.0,0.0,91,0.00,,,0.01,VWS V14.01,2013-08-12 03:54:00,
2013-08-11 23:59:00,79.2,76.3,30.01,SSE,160,0.0,0.0,91,0.00,,,0.01,VWS V14.01,2013-08-12 03:59:00,